TimeCST,TemperatureF,Dew PointF,Humidity,Sea Level PressureIn,VisibilityMPH,Wind Direction,Wind SpeedMPH,Gust SpeedMPH,PrecipitationIn,Events,Conditions,WindDirDegrees,DateUTC
12:00 AM,62,59,87,30.10,12,Calm,Calm,,,,Scattered Clouds,,2014-01-17 06:00:00
3:00 AM,60,58,93,30.07,12,Calm,Calm,,,,Scattered Clouds,,2014-01-17 09:00:00
5:00 AM,59.0,59.0,100,30.06,6.2,WNW,3.5,-,N/A,,Mostly Cloudy,290,2014-01-17 11:00:00
6:00 AM,61,59,91,30.10,12,Calm,Calm,,,,Mostly Cloudy,,2014-01-17 12:00:00
6:00 AM,60.8,59.0,94,30.09,6.2,Calm,Calm,-,N/A,,Mostly Cloudy,0,2014-01-17 12:00:00
7:00 AM,60.8,59.0,94,30.09,6.2,WNW,4.6,-,N/A,,Mostly Cloudy,300,2014-01-17 13:00:00
8:00 AM,62.6,57.2,82,30.12,6.2,NW,5.8,-,N/A,,Mostly Cloudy,320,2014-01-17 14:00:00
9:00 AM,65,58,71,29.89,12,NNW,4.6,,,,Mostly Cloudy,330,2014-01-17 15:00:00
9:00 AM,64.4,57.2,77,30.15,6.2,NNW,4.6,-,N/A,,Partly Cloudy,330,2014-01-17 15:00:00
10:00 AM,68.0,57.2,68,30.15,6.2,NNW,6.9,-,N/A,,Partly Cloudy,340,2014-01-17 16:00:00
11:00 AM,69.8,57.2,64,30.13,-9999.0,NNW,6.9,-,N/A,,Clear,340,2014-01-17 17:00:00
12:00 PM,72,56,47,30.11,14,NNW,8.1,,,,Mostly Cloudy,330,2014-01-17 18:00:00
12:00 PM,71.6,55.4,57,30.10,-9999.0,NW,8.1,-,N/A,,Clear,320,2014-01-17 18:00:00
1:00 PM,73.4,57.2,57,30.08,-9999.0,NNW,8.1,-,N/A,,Clear,330,2014-01-17 19:00:00
2:00 PM,73.4,57.2,57,30.06,6.2,NNW,8.1,-,N/A,,Partly Cloudy,330,2014-01-17 20:00:00
3:00 PM,73,57,47,30.06,14,NNW,9.2,,,,Mostly Cloudy,340,2014-01-17 21:00:00
3:00 PM,73.4,57.2,57,30.05,6.2,NNW,9.2,-,N/A,,Mostly Cloudy,340,2014-01-17 21:00:00
4:00 PM,71.6,57.2,60,30.07,6.2,NNW,8.1,-,N/A,,Mostly Cloudy,330,2014-01-17 22:00:00
5:00 PM,71.6,59.0,64,30.09,6.2,NW,4.6,-,N/A,,Overcast,310,2014-01-17 23:00:00
6:00 PM,70,61,65,30.11,12,NW,4.6,,,,Overcast,310,2014-01-18 00:00:00
6:00 PM,69.8,60.8,73,30.10,6.2,NW,4.6,-,N/A,,Overcast,310,2014-01-18 00:00:00
9:00 PM,69,65,81,30.17,12,,2.3,,,,Overcast,,2014-01-18 03:00:00
10:15 PM,66.2,64.4,94,30.15,6.2,NW,5.8,-,N/A,,Mostly Cloudy,320,2014-01-18 04:15:00